Regional Weather Roundup
Issued by NWS

Home | Current Version | Previous Version | Graphics & Text | Print | Product List | Glossary On
Versions: 1 2 3 4 5 6 7 8 9 10 11 12 13 14 15 16 17 18 19 20 21 22 23 24 25 26 27 28 29 30 31 32 33 34 35 36 37 38 39 40 41 42 43 44 45 46 47 48 49 50
131
ASUS43 KMKX 241611
RWRWI

WISCONSIN REGIONAL WEATHER ROUNDUP
NATIONAL WEATHER SERVICE MILWAUKEE/SULLIVAN WI
1100 AM CDT SUN JUL 24 2016

NOTE: "FAIR" INDICATES FEW OR NO CLOUDS BELOW 12,000 FEET WITH NO
SIGNIFICANT WEATHER AND/OR OBSTRUCTIONS TO VISIBILITY.

WIZ001-002-006>008-014>016-023>028-241700-
NORTHWEST WISCONSIN

CITY           SKY/WX    TMP DP  RH WIND       PRES   REMARKS
SUPERIOR ARPT  MOSUNNY   78  68  71 SW9       29.78S HX  80
ASHLAND        PTSUNNY   78  69  73 W10       29.78R HX  80
HAYWARD        MOSUNNY   76  67  73 VRB6      29.82S
SIREN          MOSUNNY   79  66  65 W9        29.83S HX  81
CUMBERLAND     MOSUNNY   77  64  65 NW8       29.84S
RICE LAKE      MOSUNNY   78  67  70 W10       29.85R
CHETEK         PTSUNNY   78  70  75 MISG      29.83S HX  80
LADYSMITH      PTSUNNY   77  71  80 W12       29.85R
EAU CLAIRE     MOSUNNY   80  72  76 W10       29.82R HX  84
MENOMONIE      MOSUNNY   76  76  99 NW13      29.84R
NEW RICHMOND   MOSUNNY   80  65  59 W9        29.86R HX  82
OSCEOLA        MOSUNNY   79  65  63 NW8       29.87R HX  81
$$

WIZ003>005-009-010-017-018-241700-
NORTH CENTRAL WISCONSIN

CITY           SKY/WX    TMP DP  RH WIND       PRES   REMARKS
MANITOWISH WTR CLOUDY    73  70  91 W10       29.81S
ARBOR VITAE    CLOUDY    77  72  83 W7        29.82R
WOODRUFF       CLOUDY    77  72  83 W7        29.82R
RHINELANDER    CLOUDY    77  69  76 VRB6      29.83S
EAGLE RIVER    CLOUDY    75  66  75 W9        29.81F
LAND O LAKES   PTSUNNY   77  68  73 SW6       29.82S
PHILLIPS       CLOUDY    74  70  88 W7        29.82R
TOMAHAWK       CLOUDY    74  71  90 CALM      29.83S
MEDFORD        CLOUDY    73  73 100 W6        29.83R FOG
MERRILL        LGT RAIN  73  73 100 W5        29.82S
$$

WIZ029-030-035-036-043>047-241700-
CENTRAL WISCONSIN

CITY           SKY/WX    TMP DP  RH WIND       PRES   REMARKS
WAUSAU         CLOUDY    74  73  97 W6        29.80S FOG
MOSINEE        CLOUDY    75  75 100 W7        29.83S FOG
MARSHFIELD     CLOUDY    76  72  87 W10       29.82R
STEVENS POINT  CLOUDY    74  74  99 SW8       29.82S FOG
WAUPACA        CLOUDY    79  79 100 S5        29.81S FOG     HX  83
WAUTOMA        CLOUDY    79  77  94 CALM      29.82S HX  83
WISC RAPIDS    CLOUDY    80  74  81 W7        29.82S HX  85
CAMP DOUGLAS   CLOUDY    81  77  89 W7        29.82R HX  88
$$

WIZ011>013-019>022-031-037>040-048>050-241700-
NORTHEAST WISCONSIN

CITY           SKY/WX    TMP DP  RH WIND       PRES   REMARKS
ANTIGO         CLOUDY    73  72  99 CALM      29.83S FOG
SHAWANO        CLOUDY    77  73  87 S5        29.81R
OCONTO         CLOUDY   N/A N/A N/A S5        29.80S
STURGEON BAY   CLOUDY    73  70  90 S10       29.82R
GREEN BAY      CLOUDY    75  75 100 S6        29.82S
MANITOWOC      CLOUDY    73  70  90 S21G28    29.84S
APPLETON       CLOUDY    75  75 100 S5        29.81R
CLINTONVILLE   CLOUDY    77  72  83 SW7       29.81R
OSHKOSH        CLOUDY    80  75  84 SW9       29.82R HX  85
$$

WIZ032>034-041-042-053>061-241700-
SOUTHWEST WISCONSIN

CITY           SKY/WX    TMP DP  RH WIND       PRES   REMARKS
LA CROSSE      MOSUNNY   85  74  69 N10       29.82R HX  92
SPARTA         MOSUNNY   82  76  80 W8        29.83R HX  89
VIROQUA        CLOUDY    79  78  96 W3        29.86R HX  84
BOSCOBEL       CLOUDY    84  77  79 W6        29.83R HX  94
PRAIRIE DU CHI CLOUDY    83  76  79 SW6       29.84R HX  92
PLATTEVILLE    PTSUNNY   85  81  87 SW10      29.86R HX 101
$$

WIZ056-057-062-063-064-067-068-241700-
SOUTH CENTRAL WISCONSIN

CITY           SKY/WX    TMP DP  RH WIND       PRES   REMARKS
REEDSBURG      CLOUDY   N/A N/A N/A W9        29.83R
BARABOO/DELLS  CLOUDY    82  76  82 SW10      29.82S HX  90
LONE ROCK      CLOUDY    84  78  82 W7        29.83R HX  95
MINERAL POINT  PTSUNNY   86  79  79 W8        29.86R HX  99
MADISON        PTSUNNY   85  77  77 SW7       29.83S HX  95
MIDDLETON      CLOUDY    85  77  75 SW10      29.84R HX  96
WATERTOWN      CLOUDY    82  79  90 S10       29.84S HX  93
MONROE         MOSUNNY   86  77  74 SW13G23   29.85S HX  97
JANESVILLE     MOSUNNY   88  77  70 SW17G24   29.84F HX 100
$$

WIZ051-052-058>065-066-070>072-241700-
SOUTHEAST WISCONSIN

CITY           SKY/WX    TMP DP  RH WIND       PRES   REMARKS
MILWAUKEE      CLOUDY    85  76  74 SW12      29.85R HX  94
WAUKESHA       MOSUNNY   81  73  78 SW9G17    29.87R HX  85
MILWAUKEE/TIMM MOSUNNY   82  73  74 SW9       29.86R HX  88
RACINE         CLOUDY    84  75  74 SW13G20   29.87S HX  92
BURLINGTON     SUNNY     85  78  79 S12       29.86R HX  96
KENOSHA        CLOUDY    85  76  74 S13       29.87S HX  94
FOND DU LAC    CLOUDY    81  75  82 SW10      29.83R HX  87
SHEBOYGAN      CLOUDY    73  70  90 SE10      29.84F FOG
WEST BEND      CLOUDY    82  73  74 S10       29.84F HX  88
JUNEAU         CLOUDY    81  77  86 S12       29.85S HX  88
$$

LSZ147-162-241700-
LAKE SUPERIOR

STATION/POSITION TIME  TEMP    WIND        PRES    WAVE
                       AIR SEA DIR/SP/G            HT/PER
                 (UTC) (F)     (DEG/KT/KT) (MB)    (FT/S)
W MID LAKE BUOY  1550   61 57  240/ 10/ 12 1006.2R   1/ 2
DEVILS ISLAND    1500   64     250/ 12/ 15 1007.2S
PORT WING        1500   72     260/ 10/ 15 1008.5R
SAXON HARBOR     1540   78     260/  8/ 11 1007.8R
$$

LMZ867-665-643>646-241700-
LAKE MICHIGAN

STATION/POSITION TIME  TEMP    WIND        PRES    WAVE
                       AIR SEA DIR/SP/G            HT/PER
                 (UTC) (F)     (DEG/KT/KT) (MB)    (FT/S)
CHAMBERS ISLAND  1500   75     170/  4/  8 1008.8R
S GREEN BAY BUOY 1400   74 74  180/ 14/ 17   N/A
N MID LAKE BUOY  1550   70 68  200/ 19/ 23 1008.4R   4/ 5
NORTHPORT PIER   1500   73     180/  7/ 14 1008.8S
KEWAUNEE LAKESHO 1500   64     190/ 14/ 18 1009.5F
SHEBOYGAN LAKESH 1600   64     170/  8/  8 1010.9F
PORT WASHINGTON  1500   65     190/  9/ 13 1011.5
MILWAUKEE LAKESH 1510   62     140/ 11/ 12   N/A
S MID LAKE BUOY  1550   75 72  140/ 14/ 16 1011.8F   3/ 5
KENOSHA   LAKESH 1600   81     210/  7/ 11 1011.2R
$$

TC  - TEMPERATURE IN CELSIUS
VSB - VISIBILITY IN STATUTE MILES
WCI - WIND CHILL INDEX
HX  - HEAT INDEX





USA.gov is the U.S. government's official web portal to all federal, state and local government web resources and services.